Location: Brede
(50.9167°N, 0.6000°E)
Time: 20:01:08
(UTC+00:00)

Vanguard 1 Rocket - Pass Details

Date: 28 November 2020
Orbit: 655 x 4221 km, 34.3° (Epoch: 17 January)

Event Time Altitude Azimuth Distance (km) Brightness Sun altitude
Exits shadow 04:21:48 29° 235° (SW) 5,139 10.7 -29.5°
Maximum altitude 04:31:30 44° 190° (S) 3,703 10.3 -28.0°
Drops below altitude 10° 04:43:35 10° 124° (SE) 4,396 11.6 -26.1°
Sets 04:46:30 0° 117° (ESE) 5,016 12.2 -25.6°
